www.cux-wetter.de
Wetterdaten: Donnerstag, 01.01.2015
Datum Zeit Temp. A. Feuchte A. Luftdruck Regen Wind Richtung Richtung Sonnenschein Solar Taupunkt Windchill Windben
01.01.2015 00:00 22,8 C 99 % 1030,5 hPa 0,0 l/m 24,2 km/h (4 Bft) W 270 0 min 0 W/m 22,6 C 19,3 C 24,2 km/h (4 Bft)
01.01.2015 00:15 22,8 C 99 % 1030,5 hPa 0,0 l/m 23,3 km/h (4 Bft) W 270 0 min 0 W/m 22,6 C 19,4 C 23,3 km/h (4 Bft)
01.01.2015 00:30 22,8 C 99 % 1030,5 hPa 0,0 l/m 28,4 km/h (5 Bft) W 270 0 min 0 W/m 22,6 C 18,8 C 28,4 km/h (5 Bft)
01.01.2015 00:45 22,8 C 99 % 1030,5 hPa 0,0 l/m 26,2 km/h (4 Bft) W 270 0 min 0 W/m 22,6 C 19,0 C 26,2 km/h (4 Bft)
01.01.2015 01:00 22,8 C 99 % 1030,5 hPa 0,0 l/m 27,3 km/h (5 Bft) W 265 0 min 0 W/m 22,6 C 18,9 C 27,3 km/h (5 Bft)
01.01.2015 01:15 22,8 C 99 % 1030,5 hPa 0,0 l/m 33,8 km/h (5 Bft) W 275 0 min 0 W/m 22,6 C 18,3 C 33,8 km/h (5 Bft)
01.01.2015 01:29 22,8 C 99 % 1029,5 hPa 0,0 l/m 27,6 km/h (5 Bft) W 270 0 min 0 W/m 22,6 C 18,9 C 27,6 km/h (5 Bft)
01.01.2015 01:45 22,8 C 99 % 1029,5 hPa 0,0 l/m 30,3 km/h (5 Bft) W 275 0 min 0 W/m 22,6 C 18,6 C 30,3 km/h (5 Bft)
01.01.2015 02:00 22,8 C 99 % 1029,5 hPa 0,0 l/m 28,1 km/h (5 Bft) W 270 0 min 0 W/m 22,6 C 18,8 C 28,1 km/h (5 Bft)
01.01.2015 02:14 22,8 C 99 % 1029,5 hPa 0,0 l/m 29,0 km/h (5 Bft) W 265 0 min 0 W/m 22,6 C 18,8 C 29,0 km/h (5 Bft)
01.01.2015 02:30 22,8 C 99 % 1029,5 hPa 0,0 l/m 29,7 km/h (5 Bft) W 270 0 min 0 W/m 22,6 C 18,7 C 29,7 km/h (5 Bft)
01.01.2015 02:45 22,8 C 99 % 1029,5 hPa 0,0 l/m 25,9 km/h (4 Bft) W 265 0 min 0 W/m 22,6 C 19,1 C 25,9 km/h (4 Bft)
01.01.2015 03:00 22,8 C 99 % 1029,5 hPa 0,0 l/m 27,3 km/h (5 Bft) W 270 0 min 0 W/m 22,6 C 18,9 C 27,3 km/h (5 Bft)
01.01.2015 03:15 22,8 C 99 % 1029,5 hPa 0,0 l/m 28,6 km/h (5 Bft) W 265 0 min 0 W/m 22,6 C 18,8 C 28,6 km/h (5 Bft)
01.01.2015 03:30 22,8 C 99 % 1029,5 hPa 0,0 l/m 27,9 km/h (5 Bft) W 270 0 min 0 W/m 22,6 C 18,9 C 27,9 km/h (5 Bft)
01.01.2015 03:45 22,8 C 99 % 1029,5 hPa 0,0 l/m 27,7 km/h (5 Bft) W 270 0 min 0 W/m 22,6 C 18,9 C 27,7 km/h (5 Bft)
01.01.2015 04:00 22,8 C 99 % 1029,5 hPa 0,0 l/m 27,4 km/h (5 Bft) W 260 0 min 0 W/m 22,6 C 18,9 C 27,4 km/h (5 Bft)
01.01.2015 04:15 22,8 C 99 % 1028,5 hPa 0,0 l/m 27,5 km/h (5 Bft) W 265 0 min 0 W/m 22,6 C 18,9 C 27,5 km/h (5 Bft)
01.01.2015 04:30 22,8 C 99 % 1028,5 hPa 0,0 l/m 27,6 km/h (5 Bft) W 265 0 min 0 W/m 22,6 C 18,9 C 27,6 km/h (5 Bft)
01.01.2015 04:45 22,8 C 99 % 1028,5 hPa 0,0 l/m 31,7 km/h (5 Bft) W 260 0 min 0 W/m 22,6 C 18,5 C 31,7 km/h (5 Bft)
01.01.2015 05:00 22,8 C 99 % 1029,5 hPa 0,0 l/m 32,0 km/h (5 Bft) W 275 0 min 0 W/m 22,6 C 18,5 C 32,0 km/h (5 Bft)
01.01.2015 05:14 22,8 C 99 % 1029,5 hPa 0,0 l/m 30,4 km/h (5 Bft) W 270 0 min 0 W/m 22,6 C 18,6 C 30,4 km/h (5 Bft)
01.01.2015 05:30 22,8 C 99 % 1028,5 hPa 0,0 l/m 31,8 km/h (5 Bft) W 270 0 min 0 W/m 22,6 C 18,5 C 31,8 km/h (5 Bft)
01.01.2015 05:45 22,8 C 99 % 1029,5 hPa 0,0 l/m 33,6 km/h (5 Bft) W 270 0 min 0 W/m 22,6 C 18,3 C 33,6 km/h (5 Bft)
01.01.2015 06:00 22,8 C 99 % 1029,5 hPa 0,0 l/m 33,0 km/h (5 Bft) W 270 0 min 0 W/m 22,6 C 18,4 C 33,0 km/h (5 Bft)
01.01.2015 06:15 22,8 C 99 % 1028,5 hPa 0,0 l/m 31,5 km/h (5 Bft) W 270 0 min 0 W/m 22,6 C 18,5 C 31,5 km/h (5 Bft)
01.01.2015 06:30 22,8 C 99 % 1028,5 hPa 0,0 l/m 34,4 km/h (5 Bft) W 270 0 min 0 W/m 22,6 C 18,3 C 34,4 km/h (5 Bft)
01.01.2015 06:45 22,8 C 99 % 1028,5 hPa 0,0 l/m 30,2 km/h (5 Bft) W 270 0 min 0 W/m 22,6 C 18,6 C 30,2 km/h (5 Bft)
01.01.2015 07:00 22,8 C 99 % 1028,5 hPa 0,0 l/m 32,2 km/h (5 Bft) W 265 0 min 0 W/m 22,6 C 18,5 C 32,2 km/h (5 Bft)
01.01.2015 07:15 22,8 C 99 % 1028,5 hPa 0,0 l/m 30,8 km/h (5 Bft) W 265 0 min 0 W/m 22,6 C 18,6 C 30,8 km/h (5 Bft)
01.01.2015 07:30 22,8 C 99 % 1028,5 hPa 0,0 l/m 35,6 km/h (5 Bft) W 265 0 min 0 W/m 22,6 C 18,2 C 35,6 km/h (5 Bft)
01.01.2015 07:45 22,8 C 99 % 1027,5 hPa 0,0 l/m 31,6 km/h (5 Bft) W 265 0 min 0 W/m 22,6 C 18,5 C 31,6 km/h (5 Bft)
01.01.2015 08:00 22,8 C 99 % 1027,5 hPa 0,0 l/m 41,8 km/h (6 Bft) W 270 0 min 0 W/m 22,6 C 17,8 C 41,8 km/h (6 Bft)
01.01.2015 08:15 22,8 C 99 % 1028,5 hPa 0,0 l/m 34,1 km/h (5 Bft) W 270 0 min 0 W/m 22,6 C 18,3 C 34,1 km/h (5 Bft)
01.01.2015 08:30 22,8 C 99 % 1027,5 hPa 0,0 l/m 33,4 km/h (5 Bft) W 265 0 min 0 W/m 22,6 C 18,4 C 33,4 km/h (5 Bft)
01.01.2015 08:44 22,8 C 99 % 1028,5 hPa 0,0 l/m 34,9 km/h (5 Bft) W 275 0 min 0 W/m 22,6 C 18,2 C 34,9 km/h (5 Bft)
01.01.2015 09:00 22,8 C 99 % 1028,5 hPa 0,0 l/m 39,8 km/h (6 Bft) W 275 0 min 0 W/m 22,6 C 17,9 C 39,8 km/h (6 Bft)
01.01.2015 09:15 22,8 C 99 % 1028,5 hPa 0,0 l/m 34,5 km/h (5 Bft) W 275 0 min 0 W/m 22,6 C 18,3 C 34,5 km/h (5 Bft)
01.01.2015 09:30 22,8 C 99 % 1028,5 hPa 0,0 l/m 35,6 km/h (5 Bft) W 270 0 min 0 W/m 22,6 C 18,2 C 35,6 km/h (5 Bft)
01.01.2015 09:45 22,8 C 99 % 1028,5 hPa 0,0 l/m 32,0 km/h (5 Bft) W 270 0 min 0 W/m 22,6 C 18,5 C 32,0 km/h (5 Bft)
01.01.2015 10:00 22,8 C 99 % 1028,5 hPa 0,0 l/m 29,4 km/h (5 Bft) W 270 0 min 0 W/m 22,6 C 18,7 C 29,4 km/h (5 Bft)
01.01.2015 10:14 22,8 C 99 % 1028,5 hPa 0,0 l/m 38,7 km/h (6 Bft) W 260 0 min 0 W/m 22,6 C 18,0 C 38,7 km/h (6 Bft)
01.01.2015 10:30 22,8 C 99 % 1028,5 hPa 0,0 l/m 35,3 km/h (5 Bft) W 260 0 min 0 W/m 22,6 C 18,2 C 35,3 km/h (5 Bft)
01.01.2015 10:45 22,8 C 99 % 1028,5 hPa 0,0 l/m 32,2 km/h (5 Bft) W 275 0 min 0 W/m 22,6 C 18,5 C 32,2 km/h (5 Bft)
01.01.2015 10:59 22,8 C 99 % 1028,5 hPa 0,0 l/m 38,7 km/h (6 Bft) W 270 0 min 0 W/m 22,6 C 18,0 C 38,7 km/h (6 Bft)
01.01.2015 11:15 22,8 C 99 % 1028,5 hPa 0,0 l/m 36,8 km/h (5 Bft) W 265 0 min 0 W/m 22,6 C 18,1 C 36,8 km/h (5 Bft)
01.01.2015 11:29 22,8 C 99 % 1027,5 hPa 0,0 l/m 42,2 km/h (6 Bft) W 270 0 min 0 W/m 22,6 C 17,7 C 42,2 km/h (6 Bft)
01.01.2015 11:45 22,8 C 99 % 1027,5 hPa 0,0 l/m 37,7 km/h (5 Bft) W 275 0 min 0 W/m 22,6 C 18,0 C 37,7 km/h (5 Bft)
01.01.2015 12:00 22,8 C 99 % 1027,5 hPa 0,0 l/m 38,2 km/h (6 Bft) W 270 0 min 0 W/m 22,6 C 18,0 C 38,2 km/h (6 Bft)
01.01.2015 12:15 22,8 C 99 % 1027,5 hPa 0,0 l/m 38,9 km/h (6 Bft) W 270 0 min 0 W/m 22,6 C 17,9 C 38,9 km/h (6 Bft)
01.01.2015 12:30 22,8 C 99 % 1027,5 hPa 0,0 l/m 42,5 km/h (6 Bft) W 275 0 min 0 W/m 22,6 C 17,7 C 42,5 km/h (6 Bft)
01.01.2015 12:45 22,8 C 99 % 1026,5 hPa 0,0 l/m 39,4 km/h (6 Bft) W 270 0 min 0 W/m 22,6 C 17,9 C 39,4 km/h (6 Bft)
01.01.2015 13:00 22,8 C 99 % 1026,5 hPa 0,0 l/m 40,5 km/h (6 Bft) W 270 0 min 0 W/m 22,6 C 17,8 C 40,5 km/h (6 Bft)
01.01.2015 13:15 22,8 C 99 % 1026,5 hPa 0,0 l/m 39,2 km/h (6 Bft) W 275 0 min 0 W/m 22,6 C 17,9 C 39,2 km/h (6 Bft)
01.01.2015 13:30 22,8 C 99 % 1027,5 hPa 0,0 l/m 40,5 km/h (6 Bft) W 275 0 min 0 W/m 22,6 C 17,8 C 40,5 km/h (6 Bft)
01.01.2015 13:44 22,8 C 99 % 1026,5 hPa 0,0 l/m 39,2 km/h (6 Bft) W 275 0 min 0 W/m 22,6 C 17,9 C 39,2 km/h (6 Bft)
01.01.2015 14:00 22,8 C 99 % 1026,5 hPa 0,0 l/m 33,0 km/h (5 Bft) W 275 0 min 0 W/m 22,6 C 18,4 C 33,0 km/h (5 Bft)
01.01.2015 14:15 22,8 C 99 % 1026,5 hPa 0,0 l/m 41,2 km/h (6 Bft) W 270 0 min 0 W/m 22,6 C 17,8 C 41,2 km/h (6 Bft)
01.01.2015 14:30 22,8 C 99 % 1025,5 hPa 0,0 l/m 34,0 km/h (5 Bft) W 265 0 min 0 W/m 22,6 C 18,3 C 34,0 km/h (5 Bft)
01.01.2015 14:45 22,8 C 99 % 1025,5 hPa 0,0 l/m 37,3 km/h (5 Bft) W 270 0 min 0 W/m 22,6 C 18,1 C 37,3 km/h (5 Bft)
01.01.2015 15:00 22,8 C 99 % 1025,5 hPa 0,0 l/m 35,0 km/h (5 Bft) W 260 0 min 0 W/m 22,6 C 18,2 C 35,0 km/h (5 Bft)
01.01.2015 15:14 22,8 C 99 % 1025,5 hPa 0,0 l/m 38,8 km/h (6 Bft) W 270 0 min 0 W/m 22,6 C 18,0 C 38,8 km/h (6 Bft)
01.01.2015 15:30 22,8 C 99 % 1025,5 hPa 0,0 l/m 38,7 km/h (6 Bft) W 265 0 min 0 W/m 22,6 C 18,0 C 38,7 km/h (6 Bft)
01.01.2015 15:45 22,8 C 99 % 1024,5 hPa 0,0 l/m 35,1 km/h (5 Bft) W 270 0 min 0 W/m 22,6 C 18,2 C 35,1 km/h (5 Bft)
01.01.2015 15:59 22,8 C 99 % 1024,5 hPa 0,0 l/m 37,2 km/h (5 Bft) W 270 0 min 0 W/m 22,6 C 18,1 C 37,2 km/h (5 Bft)
01.01.2015 16:15 22,8 C 99 % 1024,5 hPa 0,0 l/m 37,0 km/h (5 Bft) W 280 0 min 0 W/m 22,6 C 18,1 C 37,0 km/h (5 Bft)
01.01.2015 16:29 22,8 C 99 % 1024,5 hPa 0,0 l/m 40,9 km/h (6 Bft) W 270 0 min 0 W/m 22,6 C 17,8 C 40,9 km/h (6 Bft)
01.01.2015 16:45 22,8 C 99 % 1024,5 hPa 0,0 l/m 41,5 km/h (6 Bft) W 270 0 min 0 W/m 22,6 C 17,8 C 41,5 km/h (6 Bft)
01.01.2015 17:00 22,8 C 99 % 1023,5 hPa 0,0 l/m 36,5 km/h (5 Bft) W 270 0 min 0 W/m 22,6 C 18,1 C 36,5 km/h (5 Bft)
01.01.2015 17:15 22,8 C 99 % 1023,5 hPa 0,0 l/m 35,6 km/h (5 Bft) W 270 0 min 0 W/m 22,6 C 18,2 C 35,6 km/h (5 Bft)
01.01.2015 17:30 22,8 C 99 % 1023,5 hPa 0,0 l/m 43,8 km/h (6 Bft) W 270 0 min 0 W/m 22,6 C 17,6 C 43,8 km/h (6 Bft)
01.01.2015 17:45 22,8 C 99 % 1022,5 hPa 0,0 l/m 33,7 km/h (5 Bft) W 270 0 min 0 W/m 22,6 C 18,3 C 33,7 km/h (5 Bft)
01.01.2015 18:00 22,8 C 99 % 1022,5 hPa 0,0 l/m 36,4 km/h (5 Bft) W 265 0 min 0 W/m 22,6 C 18,1 C 36,4 km/h (5 Bft)
01.01.2015 18:15 22,8 C 99 % 1022,5 hPa 0,0 l/m 40,4 km/h (6 Bft) W 275 0 min 0 W/m 22,6 C 17,8 C 40,4 km/h (6 Bft)
01.01.2015 18:30 22,8 C 99 % 1022,5 hPa 0,0 l/m 43,7 km/h (6 Bft) W 270 0 min 0 W/m 22,6 C 17,7 C 43,7 km/h (6 Bft)
01.01.2015 18:44 22,8 C 99 % 1022,5 hPa 0,0 l/m 44,4 km/h (6 Bft) W 265 0 min 0 W/m 22,6 C 17,6 C 44,4 km/h (6 Bft)
01.01.2015 19:00 22,8 C 99 % 1022,5 hPa 0,0 l/m 47,0 km/h (6 Bft) W 270 0 min 0 W/m 22,6 C 17,5 C 47,0 km/h (6 Bft)
01.01.2015 19:15 22,8 C 99 % 1021,5 hPa 0,0 l/m 48,8 km/h (7 Bft) W 265 0 min 0 W/m 22,6 C 17,4 C 48,8 km/h (7 Bft)
01.01.2015 19:30 22,8 C 99 % 1021,5 hPa 0,0 l/m 48,1 km/h (6 Bft) W 270 0 min 0 W/m 22,6 C 17,4 C 48,1 km/h (6 Bft)
01.01.2015 19:45 22,8 C 99 % 1020,5 hPa 0,0 l/m 43,9 km/h (6 Bft) W 270 0 min 0 W/m 22,6 C 17,6 C 43,9 km/h (6 Bft)
01.01.2015 20:00 22,8 C 99 % 1020,5 hPa 0,0 l/m 46,2 km/h (6 Bft) W 270 0 min 0 W/m 22,6 C 17,5 C 46,2 km/h (6 Bft)
01.01.2015 20:14 22,8 C 99 % 1020,5 hPa 0,0 l/m 40,1 km/h (6 Bft) W 265 0 min 0 W/m 22,6 C 17,9 C 40,1 km/h (6 Bft)
01.01.2015 20:30 22,8 C 99 % 1019,5 hPa 0,0 l/m 42,4 km/h (6 Bft) W 265 0 min 0 W/m 22,6 C 17,7 C 42,4 km/h (6 Bft)
01.01.2015 20:45 22,8 C 99 % 1019,5 hPa 0,0 l/m 43,1 km/h (6 Bft) W 260 0 min 0 W/m 22,6 C 17,7 C 43,1 km/h (6 Bft)
01.01.2015 20:59 22,8 C 99 % 1019,5 hPa 0,0 l/m 42,4 km/h (6 Bft) W 265 0 min 0 W/m 22,6 C 17,7 C 42,4 km/h (6 Bft)
01.01.2015 21:15 22,8 C 99 % 1019,5 hPa 0,0 l/m 43,2 km/h (6 Bft) W 270 0 min 0 W/m 22,6 C 17,7 C 43,2 km/h (6 Bft)
01.01.2015 21:29 22,8 C 99 % 1018,5 hPa 0,0 l/m 40,2 km/h (6 Bft) W 270 0 min 0 W/m 22,6 C 17,9 C 40,2 km/h (6 Bft)
01.01.2015 21:45 22,8 C 99 % 1018,5 hPa 0,0 l/m 39,1 km/h (6 Bft) W 270 0 min 0 W/m 22,6 C 17,9 C 39,1 km/h (6 Bft)
01.01.2015 22:00 22,8 C 99 % 1018,5 hPa 0,0 l/m 35,6 km/h (5 Bft) W 265 0 min 0 W/m 22,6 C 18,2 C 35,6 km/h (5 Bft)
01.01.2015 22:15 22,8 C 99 % 1017,5 hPa 0,0 l/m 45,0 km/h (6 Bft) W 270 0 min 0 W/m 22,6 C 17,6 C 45,0 km/h (6 Bft)
01.01.2015 22:30 22,8 C 99 % 1017,5 hPa 0,0 l/m 43,5 km/h (6 Bft) W 275 0 min 0 W/m 22,6 C 17,7 C 43,5 km/h (6 Bft)
01.01.2015 22:45 22,8 C 99 % 1017,5 hPa 0,0 l/m 43,3 km/h (6 Bft) W 275 0 min 0 W/m 22,6 C 17,7 C 43,3 km/h (6 Bft)
01.01.2015 23:00 22,8 C 99 % 1016,5 hPa 0,0 l/m 49,3 km/h (7 Bft) W 275 0 min 0 W/m 22,6 C 17,4 C 49,3 km/h (7 Bft)
01.01.2015 23:15 22,8 C 99 % 1016,5 hPa 0,0 l/m 50,1 km/h (7 Bft) W 275 0 min 0 W/m 22,6 C 17,3 C 50,1 km/h (7 Bft)
01.01.2015 23:30 22,8 C 99 % 1015,5 hPa 0,0 l/m 44,6 km/h (6 Bft) W 265 0 min 0 W/m 22,6 C 17,6 C 44,6 km/h (6 Bft)
01.01.2015 23:44 22,8 C 99 % 1015,5 hPa 0,0 l/m 40,6 km/h (6 Bft) W 275 0 min 0 W/m 22,6 C 17,8 C 40,6 km/h (6 Bft)
_ Min-Zeit 00:00 00:00 23:30 - 00:15 - - - - 00:00 23:15 00:15
Minimum _ 22,8 C 99 % 1015,5 hPa - 23,3 km/h (4 Bft) - - - - 22,6 C 17,3 C 23,3 km/h (4 Bft)
_ Max-Zeit 00:00 00:00 00:00 00:00 23:15 - - 00:00 00:00 00:00 00:15 23:15
Maximum _ 22,8 C 99 % 1030,5 hPa 0,0 l/m 50,1 km/h
W (7 Bft)
- - 0 min 0 W/m 22,6 C 19,4 C 50,1 km/h
W (7 Bft)
Durchschnitt _ 22,8 C 99 % 1025,7 hPa #0,0 l/m 36,4 km/h (5 Bft) W - #0 min. 0 W/m 22,6 C 18,2 C 36,4 km/h (5 Bft)
copyright by Holger Just